Time,TemperatureF,DewpointF,PressureIn,WindDirection,WindDirectionDegrees,WindSpeedMPH,WindSpeedGustMPH,Humidity,HourlyPrecipIn,Conditions,Clouds,dailyrainin,SoftwareType,DateUTC
2013-05-27 07:15:00,59.6,59.0,30.04,NE,53,3.0,3.0,98,0.17,,,0.28,Wunderground v.1.15,2013-05-27 12:15:00,
2013-05-27 07:25:00,59.6,59.0,30.04,ENE,71,2.0,6.0,98,0.24,,,0.31,Wunderground v.1.15,2013-05-27 12:25:00,
2013-05-27 07:30:00,59.6,59.0,30.04,ENE,73,4.0,6.0,98,0.34,,,0.34,Wunderground v.1.15,2013-05-27 12:30:00,
2013-05-27 07:40:00,59.6,59.0,30.03,ENE,64,3.0,5.0,98,0.20,,,0.38,Wunderground v.1.15,2013-05-27 12:40:00,
2013-05-27 07:45:00,59.6,59.0,30.03,ENE,58,1.0,1.0,98,0.16,,,0.39,Wunderground v.1.15,2013-05-27 12:45:00,
2013-05-27 07:55:00,59.7,59.1,30.03,East,96,0.0,0.0,98,0.13,,,0.41,Wunderground v.1.15,2013-05-27 12:55:00,
2013-05-27 08:00:00,59.7,59.1,30.04,NE,34,1.0,4.0,98,0.13,,,0.42,Wunderground v.1.15,2013-05-27 13:00:00,
2013-05-27 08:10:00,59.6,59.0,30.04,NE,50,2.0,3.0,98,0.07,,,0.43,Wunderground v.1.15,2013-05-27 13:10:00,
2013-05-27 08:15:00,59.7,59.1,30.06,NW,314,2.0,3.0,98,0.04,,,0.43,Wunderground v.1.15,2013-05-27 13:15:00,
2013-05-27 08:20:00,59.8,59.2,30.06,WNW,293,1.0,1.0,98,0.00,,,0.43,Wunderground v.1.15,2013-05-27 13:20:00,
2013-05-27 08:30:00,59.8,59.2,30.07,NNE,19,0.0,0.0,98,0.00,,,0.43,Wunderground v.1.15,2013-05-27 13:30:00,
2013-05-27 08:40:00,59.8,59.2,30.05,ENE,77,1.0,1.0,98,0.00,,,0.43,Wunderground v.1.15,2013-05-27 13:40:00,
2013-05-27 08:45:00,59.9,59.3,30.06,NE,38,1.0,1.0,98,0.00,,,0.43,Wunderground v.1.15,2013-05-27 13:45:00,
2013-05-27 08:55:00,60.1,59.5,30.05,ENE,75,0.0,1.0,98,0.00,,,0.43,Wunderground v.1.15,2013-05-27 13:55:00,
2013-05-27 09:00:00,60.2,59.6,30.04,East,79,0.0,0.0,98,0.00,,,0.43,Wunderground v.1.15,2013-05-27 14:00:00,
2013-05-27 09:10:00,60.2,59.6,30.06,WNW,295,1.0,1.0,98,0.00,,,0.43,Wunderground v.1.15,2013-05-27 14:10:00,
2013-05-27 09:15:00,60.2,59.6,30.05,NNE,23,1.0,5.0,98,0.00,,,0.43,Wunderground v.1.15,2013-05-27 14:15:00,
2013-05-27 09:20:00,60.2,59.6,30.04,NE,47,3.0,5.0,98,0.00,,,0.43,Wunderground v.1.15,2013-05-27 14:20:00,
2013-05-27 09:30:00,60.6,60.0,30.03,NE,55,6.0,6.0,98,0.00,,,0.44,Wunderground v.1.15,2013-05-27 14:30:00,
2013-05-27 09:35:00,60.7,60.1,30.03,ENE,58,5.0,6.0,98,0.00,,,0.44,Wunderground v.1.15,2013-05-27 14:35:00,
2013-05-27 09:40:00,60.8,59.9,30.03,NE,44,5.0,5.0,97,0.00,,,0.44,Wunderground v.1.15,2013-05-27 14:40:00,
2013-05-27 09:50:00,61.2,60.3,30.02,NE,44,6.0,6.0,97,0.00,,,0.44,Wunderground v.1.15,2013-05-27 14:50:00,
2013-05-27 10:00:00,61.7,60.8,30.01,ENE,68,6.0,6.0,97,0.00,,,0.44,Wunderground v.1.15,2013-05-27 15:00:00,
2013-05-27 10:10:00,62.0,60.8,30.01,ENE,58,7.0,9.0,96,0.00,,,0.44,Wunderground v.1.15,2013-05-27 15:10:00,
2013-05-27 10:20:00,62.6,61.7,30.01,NE,38,7.0,7.0,97,0.00,,,0.44,Wunderground v.1.15,2013-05-27 15:20:00,
2013-05-27 10:25:00,62.8,61.6,30.01,ENE,60,6.0,7.0,96,0.00,,,0.44,Wunderground v.1.15,2013-05-27 15:25:00,
2013-05-27 10:35:00,63.2,61.4,30.01,NE,56,6.0,7.0,94,0.00,,,0.44,Wunderground v.1.15,2013-05-27 15:35:00,
2013-05-27 10:40:00,63.3,61.5,30.01,NE,48,6.0,6.0,94,0.00,,,0.44,Wunderground v.1.15,2013-05-27 15:40:00,
2013-05-27 10:50:00,64.2,62.4,30.01,ENE,68,2.0,2.0,94,0.00,,,0.44,Wunderground v.1.15,2013-05-27 15:50:00,
2013-05-27 11:00:00,64.8,62.7,30.01,South,176,1.0,1.0,93,0.00,,,0.44,Wunderground v.1.15,2013-05-27 16:00:00,
2013-05-27 11:10:00,65.2,62.8,30.02,SSE,166,1.0,4.0,92,0.00,,,0.44,Wunderground v.1.15,2013-05-27 16:10:00,
2013-05-27 11:15:00,65.2,62.8,30.01,SSE,165,2.0,4.0,92,0.00,,,0.44,Wunderground v.1.15,2013-05-27 16:15:00,
2013-05-27 11:25:00,65.9,63.8,30.01,South,175,1.0,3.0,93,0.00,,,0.44,Wunderground v.1.15,2013-05-27 16:25:00,
2013-05-27 11:35:00,66.4,64.0,30.01,South,175,1.0,1.0,92,0.00,,,0.44,Wunderground v.1.15,2013-05-27 16:35:00,
2013-05-27 11:40:00,66.7,64.0,30.01,SW,226,1.0,2.0,91,0.00,,,0.44,Wunderground v.1.15,2013-05-27 16:40:00,
2013-05-27 11:45:00,66.8,63.8,30.01,SSE,163,2.0,2.0,90,0.00,,,0.44,Wunderground v.1.15,2013-05-27 16:45:00,
2013-05-27 11:55:00,67.0,64.3,30.01,WSW,251,0.0,1.0,91,0.00,,,0.44,Wunderground v.1.15,2013-05-27 16:55:00,
2013-05-27 12:00:00,67.3,64.6,30.01,SSW,200,0.0,2.0,91,0.00,,,0.44,Wunderground v.1.15,2013-05-27 17:00:00,
2013-05-27 12:10:00,67.8,64.8,30.01,SE,133,1.0,2.0,90,0.00,,,0.44,Wunderground v.1.15,2013-05-27 17:10:00,
2013-05-27 12:15:00,68.0,64.3,30.01,SSW,194,1.0,2.0,88,0.00,,,0.44,Wunderground v.1.15,2013-05-27 17:15:00,
2013-05-27 12:25:00,68.2,65.2,30.00,East,82,1.0,3.0,90,0.00,,,0.44,Wunderground v.1.15,2013-05-27 17:25:00,
2013-05-27 12:35:00,68.5,65.4,30.01,ESE,117,1.0,2.0,90,0.00,,,0.44,Wunderground v.1.15,2013-05-27 17:35:00,
2013-05-27 12:40:00,68.8,65.7,30.00,ENE,61,1.0,3.0,90,0.00,,,0.44,Wunderground v.1.15,2013-05-27 17:40:00,
2013-05-27 12:50:00,69.3,65.9,30.00,SSW,207,2.0,3.0,89,0.00,,,0.44,Wunderground v.1.15,2013-05-27 17:50:00,
2013-05-27 13:00:00,69.3,65.3,30.00,SSE,153,3.0,4.0,87,0.00,,,0.44,Wunderground v.1.15,2013-05-27 18:00:00,
2013-05-27 13:10:00,69.5,66.1,30.00,SW,226,2.0,2.0,89,0.00,,,0.44,Wunderground v.1.15,2013-05-27 18:10:00,
2013-05-27 13:15:00,69.6,65.9,30.00,WSW,237,2.0,2.0,88,0.00,,,0.44,Wunderground v.1.15,2013-05-27 18:15:00,
2013-05-27 13:25:00,69.4,65.7,30.00,ENE,76,1.0,2.0,88,0.00,,,0.44,Wunderground v.1.15,2013-05-27 18:25:00,
2013-05-27 13:30:00,69.4,65.4,30.00,South,185,1.0,1.0,87,0.00,,,0.44,Wunderground v.1.15,2013-05-27 18:30:00,
2013-05-27 13:40:00,69.4,65.7,30.00,SSE,160,1.0,1.0,88,0.00,,,0.44,Wunderground v.1.15,2013-05-27 18:40:00,
2013-05-27 13:50:00,69.0,65.3,29.99,SW,226,2.0,2.0,88,0.00,,,0.44,Wunderground v.1.15,2013-05-27 18:50:00,
2013-05-27 14:00:00,68.5,65.4,30.00,SSW,195,3.0,7.0,90,0.00,,,0.44,Wunderground v.1.15,2013-05-27 19:00:00,
2013-05-27 14:10:00,68.2,65.5,30.00,South,181,4.0,4.0,91,0.00,,,0.44,Wunderground v.1.15,2013-05-27 19:10:00,
2013-05-27 14:15:00,67.9,65.2,30.00,South,170,4.0,4.0,91,0.00,,,0.44,Wunderground v.1.15,2013-05-27 19:15:00,
2013-05-27 14:25:00,67.1,65.0,29.99,South,185,4.0,4.0,93,0.25,,,0.47,Wunderground v.1.15,2013-05-27 19:25:00,
2013-05-27 14:35:00,66.5,64.7,29.97,SE,141,4.0,5.0,94,0.15,,,0.50,Wunderground v.1.15,2013-05-27 19:35:00,
2013-05-27 14:45:00,66.5,65.0,29.95,ESE,107,2.0,3.0,95,0.08,,,0.52,Wunderground v.1.15,2013-05-27 19:45:00,
2013-05-27 14:55:00,66.6,65.4,29.92,ESE,110,2.0,3.0,96,0.05,,,0.52,Wunderground v.1.15,2013-05-27 19:55:00,
2013-05-27 15:00:00,66.7,65.5,29.90,ENE,58,2.0,2.0,96,0.04,,,0.53,Wunderground v.1.15,2013-05-27 20:00:00,
2013-05-27 15:10:00,66.9,65.7,29.90,SSE,165,3.0,4.0,96,0.04,,,0.53,Wunderground v.1.15,2013-05-27 20:10:00,
2013-05-27 15:20:00,66.8,65.3,29.89,NNE,24,3.0,3.0,95,0.00,,,0.53,Wunderground v.1.15,2013-05-27 20:20:00,
2013-05-27 15:30:00,66.9,65.4,29.90,North,3,2.0,3.0,95,0.00,,,0.53,Wunderground v.1.15,2013-05-27 20:30:00,
2013-05-27 15:35:00,67.0,65.5,29.90,WSW,238,2.0,3.0,95,0.00,,,0.53,Wunderground v.1.15,2013-05-27 20:35:00,
2013-05-27 15:45:00,67.2,65.7,29.90,ESE,120,1.0,2.0,95,0.00,,,0.53,Wunderground v.1.15,2013-05-27 20:45:00,
2013-05-27 15:50:00,67.3,65.5,29.89,East,89,1.0,1.0,94,0.00,,,0.53,Wunderground v.1.15,2013-05-27 20:50:00,
2013-05-27 16:00:00,67.6,65.8,29.90,ESE,103,1.0,1.0,94,0.00,,,0.53,Wunderground v.1.15,2013-05-27 21:00:00,
2013-05-27 16:10:00,67.8,66.0,29.89,East,96,1.0,2.0,94,0.00,,,0.53,Wunderground v.1.15,2013-05-27 21:10:00,
2013-05-27 16:15:00,67.9,66.1,29.90,East,93,1.0,2.0,94,0.00,,,0.53,Wunderground v.1.15,2013-05-27 21:15:00,
2013-05-27 16:20:00,68.2,66.4,29.90,SE,128,1.0,1.0,94,0.00,,,0.53,Wunderground v.1.15,2013-05-27 21:20:00,
2013-05-27 16:30:00,68.4,66.0,29.89,NNE,30,1.0,1.0,92,0.00,,,0.53,Wunderground v.1.15,2013-05-27 21:30:00,
2013-05-27 16:40:00,69.0,66.6,29.88,East,95,2.0,5.0,92,0.00,,,0.53,Wunderground v.1.15,2013-05-27 21:40:00,
2013-05-27 16:55:00,69.7,67.0,29.87,NW,319,2.0,3.0,91,0.00,,,0.53,Wunderground v.1.15,2013-05-27 21:55:00,
2013-05-27 17:00:00,69.8,66.4,29.88,ENE,75,2.0,4.0,89,0.00,,,0.53,Wunderground v.1.15,2013-05-27 22:00:00,
2013-05-27 17:10:00,70.1,66.7,29.87,NE,53,2.0,4.0,89,0.00,,,0.53,Wunderground v.1.15,2013-05-27 22:10:00,
2013-05-27 17:20:00,70.1,66.4,29.87,ENE,68,2.0,2.0,88,0.00,,,0.53,Wunderground v.1.15,2013-05-27 22:20:00,
2013-05-27 17:30:00,69.7,66.3,29.87,ESE,106,3.0,3.0,89,0.00,,,0.53,Wunderground v.1.15,2013-05-27 22:30:00,
2013-05-27 17:35:00,69.6,66.2,29.88,SSW,200,2.0,3.0,89,0.00,,,0.53,Wunderground v.1.15,2013-05-27 22:35:00,
2013-05-27 17:45:00,69.8,66.7,29.87,South,173,1.0,2.0,90,0.00,,,0.53,Wunderground v.1.15,2013-05-27 22:45:00,
2013-05-27 17:55:00,69.7,66.3,29.88,NE,41,2.0,4.0,89,0.00,,,0.53,Wunderground v.1.15,2013-05-27 22:55:00,
2013-05-27 18:00:00,69.9,66.5,29.88,South,174,1.0,1.0,89,0.00,,,0.53,Wunderground v.1.15,2013-05-27 23:00:00,
2013-05-27 18:10:00,69.6,65.6,29.88,SSE,150,1.0,2.0,87,0.00,,,0.53,Wunderground v.1.15,2013-05-27 23:10:00,
2013-05-27 18:15:00,69.4,65.7,29.87,SW,235,1.0,2.0,88,0.00,,,0.53,Wunderground v.1.15,2013-05-27 23:15:00,
2013-05-27 18:25:00,69.5,66.1,29.88,SE,138,1.0,1.0,89,0.00,,,0.53,Wunderground v.1.15,2013-05-27 23:25:00,
2013-05-27 18:30:00,69.4,65.7,29.88,South,169,1.0,2.0,88,0.00,,,0.53,Wunderground v.1.15,2013-05-27 23:30:00,
2013-05-27 18:35:00,69.5,65.8,29.88,SE,134,1.0,2.0,88,0.00,,,0.53,Wunderground v.1.15,2013-05-27 23:35:00,
2013-05-27 18:45:00,69.9,65.9,29.88,SW,232,1.0,4.0,87,0.00,,,0.53,Wunderground v.1.15,2013-05-27 23:45:00,
2013-05-27 18:55:00,70.2,66.1,29.89,SW,221,1.0,5.0,87,0.00,,,0.53,Wunderground v.1.15,2013-05-27 23:55:00,
2013-05-27 19:00:00,70.1,65.7,29.89,South,174,1.0,2.0,86,0.00,,,0.53,Wunderground v.1.15,2013-05-28 00:00:00,
2013-05-27 19:10:00,68.9,65.2,29.89,SW,235,1.0,4.0,88,0.00,,,0.53,Wunderground v.1.15,2013-05-28 00:10:00,
2013-05-27 19:15:00,68.4,64.7,29.90,SSE,158,1.0,4.0,88,0.00,,,0.53,Wunderground v.1.15,2013-05-28 00:15:00,
2013-05-27 19:25:00,67.9,64.9,29.89,SSW,201,2.0,2.0,90,0.00,,,0.53,Wunderground v.1.15,2013-05-28 00:25:00,
2013-05-27 19:30:00,67.7,64.7,29.89,SSE,153,2.0,2.0,90,0.00,,,0.53,Wunderground v.1.15,2013-05-28 00:30:00,
2013-05-27 19:35:00,67.6,64.6,29.89,SW,225,1.0,2.0,90,0.00,,,0.53,Wunderground v.1.15,2013-05-28 00:35:00,
2013-05-27 19:45:00,67.4,64.7,29.88,SE,142,1.0,2.0,91,0.00,,,0.53,Wunderground v.1.15,2013-05-28 00:45:00,
2013-05-27 19:55:00,67.4,65.0,29.89,South,177,1.0,1.0,92,0.00,,,0.53,Wunderground v.1.15,2013-05-28 00:55:00,
2013-05-27 20:00:00,67.3,64.9,29.89,SSE,160,0.0,3.0,92,0.00,,,0.53,Wunderground v.1.15,2013-05-28 01:00:00,
2013-05-27 20:10:00,67.0,64.6,29.90,SSW,208,0.0,1.0,92,0.00,,,0.53,Wunderground v.1.15,2013-05-28 01:10:00,
2013-05-27 20:15:00,66.8,64.7,29.89,South,169,0.0,1.0,93,0.00,,,0.53,Wunderground v.1.15,2013-05-28 01:15:00,
2013-05-27 20:25:00,66.4,64.3,29.90,SSE,163,0.0,0.0,93,0.00,,,0.53,Wunderground v.1.15,2013-05-28 01:25:00,
2013-05-27 20:30:00,66.3,64.2,29.89,SSE,163,0.0,0.0,93,0.00,,,0.53,Wunderground v.1.15,2013-05-28 01:30:00,
2013-05-27 20:40:00,66.4,64.3,29.90,ESE,123,2.0,3.0,93,0.00,,,0.53,Wunderground v.1.15,2013-05-28 01:40:00,
2013-05-27 20:50:00,66.4,64.3,29.90,South,190,2.0,3.0,93,0.00,,,0.53,Wunderground v.1.15,2013-05-28 01:50:00,
2013-05-27 20:55:00,66.4,64.3,29.90,SSW,203,2.0,3.0,93,0.00,,,0.53,Wunderground v.1.15,2013-05-28 01:55:00,
2013-05-27 21:00:00,66.3,64.5,29.90,SSE,161,1.0,1.0,94,0.00,,,0.53,Wunderground v.1.15,2013-05-28 02:00:00,
2013-05-27 21:10:00,66.2,64.4,29.90,SSW,204,1.0,1.0,94,0.00,,,0.53,Wunderground v.1.15,2013-05-28 02:10:00,
2013-05-27 21:15:00,66.3,64.5,29.91,South,181,2.0,3.0,94,0.00,,,0.53,Wunderground v.1.15,2013-05-28 02:15:00,
2013-05-27 21:25:00,66.4,64.3,29.91,SSE,163,2.0,3.0,93,0.00,,,0.53,Wunderground v.1.15,2013-05-28 02:25:00,